| time (UTC) | temp F | wind direction | speed MPH | gust MPH | rain 1hr in | rain 24hr in | rain mn in | humidity % | barometer mb |
| 20260902063535 | 64 | 91 | 0.0 | 1.0 | 0.00 | 0.00 | 0.00 | 79 | 1021.4 |
| 20260902062536 | 64 | 90 | 0.0 | 1.0 | 0.00 | 0.00 | 0.00 | 78 | 1021.5 |
| 20260902060537 | 61 | 88 | 0.0 | 1.0 | 0.00 | 0.00 | 0.00 | 85 | 1021.3 |
| 20260902055637 | 58 | 0.0 | 0.0 | 0.00 | 0.00 | 0.00 | 92 | 1021.4 | |
| 20260902054538 | 55 | 0.0 | 0.0 | 0.00 | 0.00 | 0.00 | 99 | 1021.3 | |
| 20260902053539 | 54 | 0.0 | 0.0 | 0.00 | 0.00 | 0.00 | 99 | 1021.3 | |
| 20260902052542 | 53 | 0.0 | 0.0 | 0.00 | 0.00 | 0.00 | 99 | 1021.3 | |
| 20260902051539 | 52 | 0.0 | 0.0 | 0.00 | 0.00 | 0.00 | 99 | 1021.2 | |
| 20260902050540 | 51 | 0.0 | 0.0 | 0.00 | 0.00 | 0.00 | 99 | 1021.2 | |
| 20260902045600 | 51 | 0.0 | 0.0 | 0.00 | 0.00 | 0.00 | 99 | 1021.0 | |
| 20260902044540 | 50 | 0.0 | 0.0 | 0.00 | 0.00 | 0.00 | 99 | 1021.0 | |
| 20260902043540 | 50 | 0.0 | 0.0 | 0.00 | 0.00 | 0.00 | 99 | 1021.0 | |
| 20260902042602 | 51 | 0.0 | 0.0 | 0.00 | 0.00 | 0.00 | 99 | 1020.9 | |
| 20260902041541 | 51 | 0.0 | 0.0 | 0.00 | 0.00 | 0.00 | 99 | 1020.9 | |
| 20260902040542 | 50 | 0.0 | 0.0 | 0.00 | 0.00 | 0.00 | 99 | 1021.0 | |
| 20260902035542 | 51 | 0.0 | 0.0 | 0.00 | 0.00 | 0.00 | 99 | 1021.0 | |
| 20260902034542 | 51 | 0.0 | 0.0 | 0.00 | 0.00 | 0.00 | 99 | 1021.1 | |
| 20260902033543 | 51 | 0.0 | 0.0 | 0.00 | 0.00 | 0.00 | 99 | 1021.0 | |
| 20260902032543 | 51 | 0.0 | 0.0 | 0.00 | 0.00 | 0.00 | 99 | 1021.0 | |
| 20260902031604 | 51 | 0.0 | 0.0 | 0.00 | 0.00 | 0.00 | 99 | 1021.0 | |
| 20260902030544 | 52 | 0.0 | 0.0 | 0.00 | 0.00 | 0.00 | 99 | 1021.0 | |
| 20260902025625 | 52 | 0.0 | 0.0 | 0.00 | 0.00 | 0.00 | 99 | 1021.2 | |
| 20260902024545 | 53 | 0.0 | 0.0 | 0.00 | 0.00 | 0.00 | 99 | 1021.3 | |
| 20260902023546 | 53 | 0.0 | 0.0 | 0.00 | 0.00 | 0.00 | 99 | 1021.4 | |
| 20260902022547 | 53 | 0.0 | 0.0 | 0.00 | 0.00 | 0.00 | 99 | 1021.3 | |
| 20260902021548 | 53 | 0.0 | 0.0 | 0.00 | 0.00 | 0.00 | 99 | 1021.2 | |
| 20260902020607 | 53 | 0.0 | 0.0 | 0.00 | 0.00 | 0.00 | 99 | 1021.2 | |
| 20260902015548 | 53 | 0.0 | 0.0 | 0.00 | 0.00 | 0.00 | 99 | 1021.3 | |
| 20260902014547 | 53 | 0.0 | 0.0 | 0.00 | 0.00 | 0.00 | 99 | 1021.2 | |
| 20260902013548 | 54 | 0.0 | 0.0 | 0.00 | 0.00 | 0.00 | 98 | 1021.4 | |
| 20260902012551 | 54 | 0.0 | 0.0 | 0.00 | 0.00 | 0.00 | 98 | 1021.3 | |
| 20260902011549 | 54 | 0.0 | 0.0 | 0.00 | 0.00 | 0.00 | 99 | 1021.5 | |
| 20260902010549 | 54 | 60 | 0.0 | 1.0 | 0.00 | 0.00 | 0.00 | 99 | 1021.5 |
| 20260902005630 | 54 | 0.0 | 0.0 | 0.00 | 0.00 | 0.00 | 99 | 1021.5 | |
| 20260902004550 | 54 | 0.0 | 0.0 | 0.00 | 0.00 | 0.00 | 99 | 1021.6 | |
| 20260902003551 | 54 | 0.0 | 0.0 | 0.00 | 0.00 | 0.00 | 99 | 1021.5 | |
| 20260902002552 | 54 | 0.0 | 0.0 | 0.00 | 0.00 | 0.00 | 99 | 1021.4 | |
| 20260902001551 | 54 | 0.0 | 0.0 | 0.00 | 0.00 | 0.00 | 98 | 1021.5 | |
| 20260902000552 | 55 | 0.0 | 0.0 | 0.00 | 0.00 | 0.00 | 98 | 1021.7 | |
| 20260901235552 | 55 | 0.0 | 0.0 | 0.00 | 0.00 | 0.00 | 99 | 1021.7 | |
| 20260901234553 | 55 | 0.0 | 0.0 | 0.00 | 0.00 | 0.00 | 99 | 1021.7 | |
| 20260901233553 | 55 | 0.0 | 0.0 | 0.00 | 0.00 | 0.00 | 98 | 1021.8 | |
| 20260901232554 | 55 | 0.0 | 0.0 | 0.00 | 0.00 | 0.00 | 98 | 1021.7 | |
| 20260901231554 | 55 | 0.0 | 0.0 | 0.00 | 0.00 | 0.00 | 97 | 1021.7 | |
| 20260901230554 | 55 | 0.0 | 0.0 | 0.00 | 0.00 | 0.00 | 97 | 1021.6 | |
| 20260901225614 | 56 | 0.0 | 0.0 | 0.00 | 0.00 | 0.00 | 97 | 1021.6 | |
| 20260901224556 | 56 | 0.0 | 0.0 | 0.00 | 0.00 | 0.00 | 97 | 1021.7 | |
| 20260901223556 | 56 | 0.0 | 0.0 | 0.00 | 0.00 | 0.00 | 96 | 1021.6 | |
| 20260901222616 | 56 | 0.0 | 0.0 | 0.00 | 0.00 | 0.00 | 95 | 1021.8 | |
| 20260901221556 | 57 | 0.0 | 0.0 | 0.00 | 0.00 | 0.00 | 95 | 1021.7 | |
| 20260901220557 | 58 | 0.0 | 0.0 | 0.00 | 0.00 | 0.00 | 93 | 1021.9 | |
| 20260901215558 | 58 | 0.0 | 0.0 | 0.00 | 0.00 | 0.00 | 93 | 1021.8 | |
| 20260901214558 | 58 | 0.0 | 0.0 | 0.00 | 0.00 | 0.00 | 92 | 1021.7 | |
| 20260901213558 | 58 | 0.0 | 0.0 | 0.00 | 0.00 | 0.00 | 92 | 1021.8 | |
| 20260901212558 | 59 | 114 | 0.0 | 1.0 | 0.00 | 0.00 | 0.00 | 92 | 1021.6 |
| 20260901211559 | 58 | 0.0 | 0.0 | 0.00 | 0.00 | 0.00 | 92 | 1021.6 | |
| 20260901210619 | 58 | 0.0 | 0.0 | 0.00 | 0.00 | 0.00 | 92 | 1021.7 | |
| 20260901205600 | 59 | 0.0 | 0.0 | 0.00 | 0.00 | 0.00 | 91 | 1021.6 | |
| 20260901204641 | 59 | 0.0 | 0.0 | 0.00 | 0.00 | 0.00 | 90 | 1021.7 | |
| 20260901203533 | 59 | 0.0 | 0.0 | 0.00 | 0.00 | 0.00 | 90 | 1021.5 | |
| 20260901202533 | 60 | 0.0 | 0.0 | 0.00 | 0.00 | 0.00 | 89 | 1021.4 | |
| 20260901201534 | 60 | 0.0 | 0.0 | 0.00 | 0.00 | 0.00 | 88 | 1021.3 | |
| 20260901200534 | 60 | 0.0 | 0.0 | 0.00 | 0.00 | 0.00 | 88 | 1021.4 | |
| 20260901195554 | 61 | 0.0 | 0.0 | 0.00 | 0.00 | 0.00 | 87 | 1021.4 | |
| 20260901194534 | 61 | 0.0 | 0.0 | 0.00 | 0.00 | 0.00 | 87 | 1021.3 | |
| 20260901193536 | 61 | 0.0 | 0.0 | 0.00 | 0.00 | 0.00 | 85 | 1021.1 | |
| 20260901192536 | 61 | 0.0 | 0.0 | 0.00 | 0.00 | 0.00 | 85 | 1021.1 | |
| 20260901191536 | 62 | 0.0 | 0.0 | 0.00 | 0.00 | 0.00 | 83 | 1021.1 | |
| 20260901190536 | 63 | 0.0 | 0.0 | 0.00 | 0.00 | 0.00 | 79 | 1021.1 | |
| 20260901185557 | 64 | 0.0 | 0.0 | 0.00 | 0.00 | 0.00 | 77 | 1020.9 | |
| 20260901184537 | 65 | 68 | 0.0 | 1.0 | 0.00 | 0.00 | 0.00 | 74 | 1020.8 |
| 20260901183538 | 65 | 66 | 0.0 | 1.0 | 0.00 | 0.00 | 0.00 | 75 | 1020.7 |
| 20260901182558 | 66 | 55 | 1.0 | 2.0 | 0.00 | 0.00 | 0.00 | 73 | 1020.7 |
| 20260901181558 | 65 | 64 | 0.0 | 1.0 | 0.00 | 0.00 | 0.00 | 76 | 1020.6 |
| 20260901180539 | 66 | 0.0 | 0.0 | 0.00 | 0.00 | 0.00 | 72 | 1020.5 | |
| 20260901175540 | 67 | 0.0 | 0.0 | 0.00 | 0.00 | 0.00 | 71 | 1020.4 | |
| 20260901174549 | 68 | 0.0 | 0.0 | 0.00 | 0.00 | 0.00 | 68 | 1020.3 | |
| 20260901173540 | 69 | 0.0 | 0.0 | 0.00 | 0.00 | 0.00 | 65 | 1020.2 | |
| 20260901172540 | 70 | 0.0 | 1.0 | 0.00 | 0.00 | 0.00 | 64 | 1020.2 | |
| 20260901171557 | 71 | 52 | 1.0 | 2.0 | 0.00 | 0.00 | 0.00 | 63 | 1020.2 |
| 20260901170542 | 71 | 51 | 1.0 | 2.0 | 0.00 | 0.00 | 0.00 | 62 | 1020.1 |
| 20260901165602 | 72 | 50 | 1.0 | 3.0 | 0.00 | 0.00 | 0.00 | 62 | 1020.3 |
| 20260901164622 | 72 | 31 | 1.0 | 3.0 | 0.00 | 0.00 | 0.00 | 60 | 1020.2 |
| 20260901163543 | 73 | 68 | 0.0 | 2.0 | 0.00 | 0.00 | 0.00 | 57 | 1020.2 |
| 20260901162543 | 73 | 62 | 0.0 | 2.0 | 0.00 | 0.00 | 0.00 | 56 | 1020.2 |
| 20260901161543 | 74 | 41 | 1.0 | 3.0 | 0.00 | 0.00 | 0.00 | 53 | 1020.1 |
| 20260901160544 | 76 | 48 | 1.0 | 3.0 | 0.00 | 0.00 | 0.00 | 51 | 1020.0 |
| 20260901155544 | 75 | 49 | 1.0 | 6.0 | 0.00 | 0.00 | 0.00 | 51 | 1019.9 |
| 20260901154545 | 75 | 43 | 2.0 | 5.0 | 0.00 | 0.00 | 0.00 | 52 | 1020.0 |
| 20260901153545 | 75 | 14 | 2.0 | 5.0 | 0.00 | 0.00 | 0.00 | 52 | 1020.1 |
| 20260901152545 | 76 | 338 | 4.0 | 8.0 | 0.00 | 0.00 | 0.00 | 51 | 1020.1 |
| 20260901151546 | 76 | 338 | 2.0 | 9.0 | 0.00 | 0.00 | 0.00 | 49 | 1020.1 |
| 20260901150627 | 77 | 57 | 1.0 | 7.0 | 0.00 | 0.00 | 0.00 | 48 | 1020.0 |
| 20260901145546 | 77 | 41 | 2.0 | 7.0 | 0.00 | 0.00 | 0.00 | 49 | 1020.0 |
| 20260901144547 | 78 | 58 | 1.0 | 3.0 | 0.00 | 0.00 | 0.00 | 45 | 1020.1 |
| 20260901143547 | 76 | 58 | 1.0 | 6.0 | 0.00 | 0.00 | 0.00 | 47 | 1020.1 |
| 20260901142608 | 77 | 52 | 2.0 | 5.0 | 0.00 | 0.00 | 0.00 | 49 | 1020.2 |
| 20260901141548 | 76 | 5 | 3.0 | 9.0 | 0.00 | 0.00 | 0.00 | 50 | 1020.2 |
| 20260901140549 | 76 | 26 | 2.0 | 7.0 | 0.00 | 0.00 | 0.00 | 50 | 1020.3 |
| 20260901135609 | 74 | 35 | 2.0 | 6.0 | 0.00 | 0.00 | 0.00 | 52 | 1020.4 |
| 20260901134610 | 75 | 115 | 1.0 | 3.0 | 0.00 | 0.00 | 0.00 | 50 | 1020.4 |
| 20260901133550 | 75 | 143 | 1.0 | 3.0 | 0.00 | 0.00 | 0.00 | 49 | 1020.5 |
| 20260901132550 | 76 | 88 | 2.0 | 6.0 | 0.00 | 0.00 | 0.00 | 49 | 1020.5 |
| 20260901131611 | 77 | 141 | 2.0 | 5.0 | 0.00 | 0.00 | 0.00 | 48 | 1020.7 |
| 20260901130552 | 77 | 17 | 2.0 | 6.0 | 0.00 | 0.00 | 0.00 | 48 | 1020.9 |
| 20260901125551 | 77 | 347 | 3.0 | 7.0 | 0.00 | 0.00 | 0.00 | 49 | 1020.8 |
| 20260901124553 | 78 | 341 | 2.0 | 8.0 | 0.00 | 0.00 | 0.00 | 48 | 1020.9 |
| 20260901123553 | 77 | 316 | 3.0 | 10.0 | 0.00 | 0.00 | 0.00 | 47 | 1021.1 |
| 20260901122557 | 77 | 17 | 1.0 | 6.0 | 0.00 | 0.00 | 0.00 | 49 | 1021.1 |
| 20260901121554 | 77 | 72 | 1.0 | 5.0 | 0.00 | 0.00 | 0.00 | 49 | 1021.1 |
| 20260901120554 | 76 | 59 | 2.0 | 5.0 | 0.00 | 0.00 | 0.00 | 50 | 1021.2 |
| 20260901115609 | 75 | 50 | 1.0 | 5.0 | 0.00 | 0.00 | 0.00 | 52 | 1021.3 |
| 20260901114555 | 73 | 52 | 1.0 | 3.0 | 0.00 | 0.00 | 0.00 | 57 | 1021.4 |
| 20260901113556 | 72 | 23 | 2.0 | 6.0 | 0.00 | 0.00 | 0.00 | 56 | 1021.5 |
| 20260901112556 | 75 | 30 | 3.0 | 7.0 | 0.00 | 0.00 | 0.00 | 55 | 1021.5 |
| 20260901111636 | 74 | 98 | 1.0 | 3.0 | 0.00 | 0.00 | 0.00 | 54 | 1021.5 |
| 20260901110557 | 73 | 61 | 1.0 | 2.0 | 0.00 | 0.00 | 0.00 | 56 | 1021.6 |
| 20260901105656 | 73 | 86 | 1.0 | 3.0 | 0.00 | 0.00 | 0.00 | 55 | 1021.7 |
| 20260901104558 | 74 | 21 | 1.0 | 3.0 | 0.00 | 0.00 | 0.00 | 55 | 1021.7 |
| 20260901103557 | 75 | 29 | 2.0 | 6.0 | 0.00 | 0.00 | 0.00 | 54 | 1021.6 |
| 20260901102558 | 76 | 45 | 1.0 | 3.0 | 0.00 | 0.00 | 0.00 | 54 | 1021.8 |
| 20260901101558 | 75 | 24 | 2.0 | 5.0 | 0.00 | 0.00 | 0.00 | 56 | 1021.7 |
| 20260901100559 | 76 | 123 | 2.0 | 5.0 | 0.00 | 0.00 | 0.00 | 53 | 1021.7 |
| 20260901095559 | 75 | 173 | 2.0 | 5.0 | 0.00 | 0.00 | 0.00 | 54 | 1021.8 |
| 20260901094640 | 73 | 72 | 1.0 | 3.0 | 0.00 | 0.00 | 0.00 | 57 | 1021.8 |
| 20260901093600 | 73 | 176 | 1.0 | 5.0 | 0.00 | 0.00 | 0.00 | 58 | 1021.8 |
| 20260901092601 | 72 | 40 | 2.0 | 3.0 | 0.00 | 0.00 | 0.00 | 60 | 1021.9 |
| 20260901091601 | 72 | 354 | 1.0 | 5.0 | 0.00 | 0.00 | 0.00 | 59 | 1022.0 |
| 20260901090601 | 70 | 0 | 0.0 | 2.0 | 0.00 | 0.00 | 0.00 | 62 | 1021.9 |
| 20260901085602 | 72 | 67 | 1.0 | 3.0 | 0.00 | 0.00 | 0.00 | 61 | 1022.0 |
| 20260901084602 | 72 | 57 | 1.0 | 2.0 | 0.00 | 0.00 | 0.00 | 61 | 1022.0 |
| 20260901083603 | 71 | 90 | 1.0 | 2.0 | 0.00 | 0.00 | 0.00 | 61 | 1022.0 |
| 20260901082603 | 71 | 5 | 1.0 | 3.0 | 0.00 | 0.00 | 0.00 | 63 | 1022.0 |
| 20260901081603 | 70 | 103 | 1.0 | 3.0 | 0.00 | 0.00 | 0.00 | 64 | 1021.9 |
| 20260901080603 | 70 | 112 | 1.0 | 3.0 | 0.00 | 0.00 | 0.00 | 64 | 1021.9 |
| 20260901075604 | 69 | 107 | 1.0 | 5.0 | 0.00 | 0.00 | 0.00 | 65 | 1022.0 |
| 20260901074605 | 69 | 115 | 1.0 | 2.0 | 0.00 | 0.00 | 0.00 | 66 | 1021.9 |
| 20260901073533 | 68 | 117 | 2.0 | 5.0 | 0.00 | 0.00 | 0.00 | 68 | 1022.0 |
| 20260901072533 | 69 | 132 | 1.0 | 3.0 | 0.00 | 0.00 | 0.00 | 69 | 1022.0 |
| 20260901071554 | 68 | 113 | 1.0 | 3.0 | 0.00 | 0.00 | 0.00 | 71 | 1022.0 |
| 20260901070534 | 67 | 139 | 1.0 | 3.0 | 0.00 | 0.00 | 0.00 | 72 | 1021.9 |
| 20260901065535 | 66 | 103 | 1.0 | 2.0 | 0.00 | 0.00 | 0.00 | 71 | 1021.9 |
| 20260901064555 | 64 | 102 | 1.0 | 2.0 | 0.00 | 0.00 | 0.00 | 74 | 1021.9 |